Regional Weather Roundup
Issued by NWS

Home | Current Version | Previous Version | Graphics & Text | Print | Product List | Glossary Off
Versions: 1 2 3 4 5 6 7 8 9 10 11 12 13 14 15 16 17 18 19 20 21 22 23 24 25 26 27 28 29 30 31 32 33 34 35 36 37 38 39 40 41 42 43 44 45 46 47 48 49 50

000
ASUS43 KLMK 272010
RWRKY
KENTUCKY REGIONAL WEATHER ROUNDUP
NATIONAL WEATHER SERVICE LOUISVILLE KY
400 PM EDT FRI MAY 27 2016

NOTE "FAIR" INDICATES FEW OR NO CLOUDS BELOW 12,000 FEET
WITH NO SIGNIFICANT WEATHER AND/OR OBSTRUCTIONS TO VISIBILITY.

KYZ001>023-026-027-061>063-070>075-272100-
WESTERN AND SOUTH CENTRAL KENTUCKY

CITY           SKY/WX    TMP DP  RH WIND       PRES   REMARKS
PADUCAH        PTSUNNY   82  67  60 S15G26    29.89F
HENDERSON      PTSUNNY   82  66  57 S17       29.91F
OWENSBORO      PTSUNNY   84  67  56 S15       29.95F
HOPKINSVILLE   MOSUNNY   84  61  46 S15G31    29.96F
BOWLING GREEN  PTSUNNY   85  66  53 S10       29.98F
GLASGOW        CLOUDY    85  64  49 S8        30.00S
$$

KYZ024-025-028>034-038-045-046-053-272100-
NORTH CENTRAL KENTUCKY

CITY           SKY/WX    TMP DP  RH WIND       PRES   REMARKS
LOUISVILLE/SDF PTSUNNY   86  62  44 S17       29.97F
LOUISVILLE/LOU MOSUNNY   85  64  49 S12G17    29.98F
FORT KNOX      MOSUNNY   82  65  54 S17G24    29.98S
$$

KYZ035>037-039>044-047>052-055>060-089>105-272100-
NORTHEAST KENTUCKY

CITY           SKY/WX    TMP DP  RH WIND       PRES   REMARKS
LEXINGTON      CLOUDY    84  65  52 S9        30.03F
COVINGTON      MOSUNNY   84  64  50 S13G18    30.01F
FRANKFORT      MOSUNNY   86  65  49 SW7       30.00F
$$

KYZ054-064>069-076>088-106>120-272100-
SOUTHEAST KENTUCKY

CITY           SKY/WX    TMP DP  RH WIND       PRES   REMARKS
JACKSON        MOSUNNY   84  64  50 CALM      30.06F
LONDON         MOSUNNY   84  63  49 S8        30.05F
SOMERSET       CLOUDY    81  64  57 S3        30.04F
MIDDLESBORO    SUNNY     86  63  46 SW3       30.06F
MONTICELLO     CLOUDY    84  69  60 VRB7      30.04F
$$





USA.gov is the U.S. government's official web portal to all federal, state and local government web resources and services.